RH
85 79 76 72 72 69 75 79 75 74 72 70 69 65 59 59 62 63 70 64 65 69 70 78 85 89 90 95 94 91 89 88 88 87 85 84 81 78 69 82 80 82 81
84 83 82 76 71 72 75 79 78 77 78 76 72 63 63 63 64 66 66 75 64 63 67 74 82 87 85 93 94 91 89 88 87 86 86 85 82 79 72 84 81 81 82
84 87 79 72 71 77 78 80 81 79 80 74 71 69 68 68 71 71 72 71 75 68 62 67 80 78 92 91 92 91 89 88 87 86 86 85 83 82 68 81 81 80 83
80 78 79 70 77 80 81 83 84 83 82 79 79 74 68 65 66 62 69 74 74 71 67 60 81 69 88 94 91 90 89 88 88 86 86 85 84 79 69 75 79 81 84
76 81 80 74 79 82 85 85 76 80 79 78 71 68 66 68 73 68 70 74 80 80 82 77 69 76 89 98 90 89 89 89 88 88 87 85 84 80 70 69 81 83 84
76 86 76 77 81 83 84 82 78 73 72 74 71 71 70 69 68 72 80 75 84 84 85 84 91 92 93 97 93 88 88 89 88 88 87 85 83 80 76 70 81 83 84
80 71 77 78 82 86 79 73 74 80 76 77 88 81 70 62 70 68 78 86 87 86 87 88 93 97 97 94 94 88 88 88 88 88 87 85 84 81 78 72 76 84 85
84 68 78 81 83 81 87 90 85 93 84 86 97 95 82 71 68 78 83 84 83 87 90 89 90 92 96 96 94 92 88 88 88 87 87 87 85 84 82 80 76 85 85
84 73 76 82 87 84 92 85 90 96 97 90 90 100 98 94 97 80 81 84 86 90 94 92 90 91 94 94 93 95 90 88 87 87 88 88 87 85 82 80 74 83 85
84 72 77 82 79 85 90 92 88 96 94 97 95 97 98 99 100 97 82 84 82 86 93 97 94 92 92 92 90 93 93 91 88 87 88 88 88 86 83 82 78 81 84
80 72 77 84 76 89 87 86 92 94 97 98 98 98 97 98 100 100 98 92 88 91 92 97 93 97 93 93 97 96 95 94 91 89 89 89 88 87 85 82 81 75 82
79 74 77 86 84 86 88 87 87 93 96 97 97 98 98 99 98 99 99 95 96 93 93 99 95 97 95 96 94 98 97 95 94 91 89 89 88 87 86 84 82 79 77
80 80 82 88 84 85 84 83 90 92 96 98 98 98 97 98 99 99 99 96 98 94 97 98 98 97 97 98 99 99 98 97 96 94 90 89 89 88 87 86 84 80 78
86 83 83 85 80 82 85 84 94 90 93 93 96 97 97 98 98 99 99 99 96 92 95 98 98 99 98 99 99 100 98 98 98 97 92 92 92 91 90 88 86 84 81
70 80 84 80 79 80 82 87 93 96 93 90 97 96 97 97 98 98 98 98 99 98 98 96 98 98 98 99 99 97 97 100 98 98 95 95 95 94 94 92 91 89 87
84 85 83 82 76 78 82 86 88 91 87 91 93 93 95 97 98 98 98 98 97 97 97 95 97 98 98 97 98 96 93 99 100 100 98 95 96 96 96 95 95 94 93
84 82 74 81 79 81 82 89 82 83 86 88 89 92 94 97 98 98 97 97 97 97 98 94 96 97 97 97 96 96 94 95 98 100 100 99 100 99 99 98 98 97 96
85 82 77 78 81 82 82 88 81 80 88 93 93 91 94 95 97 97 97 98 98 96 98 98 96 98 98 95 96 99 93 89 96 100 100 100 100 100 100 100 100 99 98
81 87 78 79 80 84 84 76 77 80 83 93 94 92 96 97 97 97 97 97 95 92 94 96 97 96 98 96 96 98 96 97 95 99 100 100 100 100 100 100 100 99 98
79 85 79 79 80 80 80 78 75 80 81 90 91 91 96 97 98 98 97 98 94 94 93 94 94 96 97 95 96 99 98 97 98 96 99 99 99 100 100 100 100 100 98
78 81 78 80 80 75 72 81 80 82 82 85 90 92 97 97 98 99 97 97 96 95 95 95 96 94 97 97 98 98 99 98 98 98 98 98 98 98 98 100 99 100 100
82 83 77 81 82 72 75 73 76 83 83 85 91 91 93 97 97 99 100 100 98 97 97 97 97 98 99 98 98 99 99 97 99 96 99 99 98 98 98 98 100 100 100
84 86 82 79 82 79 75 73 74 80 84 87 87 88 88 94 96 97 97 98 97 98 99 97 97 98 98 99 98 98 97 97 99 97 98 99 98 98 98 97 100 100 100
86 84 77 77 80 73 78 75 76 78 83 82 85 81 89 94 95 91 87 95 97 97 97 96 97 98 97 97 98 98 99 97 95 94 95 99 99 99 99 98 100 100 100
85 77 77 78 80 79 77 78 78 78 79 81 78 75 80 87 83 82 85 93 92 97 97 91 92 93 93 94 94 90 96 95 98 98 97 98 99 100 100 99 99 100 100
81 73 69 78 75 80 77 74 75 82 86 83 80 78 79 82 82 82 86 87 90 98 97 92 90 88 90 92 94 95 96 96 97 98 97 97 99 100 100 100 98 97 99
Wind_Speed
3 4 4 6 6 8 8 8 9 9 10 10 11 13 13 12 11 7 5 16 17 19 17 17 21 19 23 30 34 29 29 28 27 26 25 24 24 23 25 21 21 20 19
4 4 5 6 7 8 8 7 9 9 10 10 10 14 14 13 11 11 7 7 19 24 21 17 19 26 28 26 31 31 30 29 28 27 26 25 24 23 24 21 22 21 19
5 5 6 7 7 7 9 8 8 8 9 9 12 12 12 14 11 12 10 7 9 21 22 21 22 21 23 26 34 33 32 30 29 28 27 25 25 23 26 20 22 21 20
6 7 6 7 7 7 7 8 8 9 9 10 10 11 12 14 14 13 10 6 10 8 14 22 22 21 19 19 34 36 33 31 29 29 28 27 25 25 27 23 22 21 20
8 7 6 7 8 7 7 8 11 11 11 11 11 12 13 12 12 9 11 8 13 10 9 15 21 19 16 20 35 36 35 32 31 30 28 28 26 26 28 27 21 21 21
7 6 8 8 8 8 9 11 13 12 11 10 12 12 13 10 8 4 8 8 10 10 12 11 8 7 15 21 22 36 36 34 32 31 29 29 27 27 27 27 21 21 21
7 10 8 9 9 9 13 14 11 12 10 10 10 12 9 8 6 12 5 4 6 9 11 10 6 5 8 21 21 35 36 35 33 32 30 29 28 26 26 27 24 22 22
7 11 9 9 10 10 11 12 13 9 8 9 8 10 9 7 7 9 5 6 7 5 9 10 8 10 9 6 11 20 35 35 34 33 31 29 28 27 26 25 25 21 22
6 11 10 9 10 10 9 12 12 11 9 9 11 5 6 6 13 4 9 5 8 6 6 9 9 11 13 12 17 19 36 34 34 33 31 30 29 28 27 26 26 22 23
7 10 9 10 12 9 11 10 11 10 10 10 10 6 8 9 4 8 5 6 7 8 6 6 9 11 15 12 22 21 32 32 33 33 32 31 29 28 28 27 25 23 23
8 10 10 10 12 8 10 13 13 11 8 7 8 9 8 7 6 5 7 8 8 5 6 6 8 9 13 11 9 10 30 30 31 32 32 31 29 28 28 28 26 26 23
7 10 10 9 10 9 11 11 12 12 10 9 8 8 8 7 9 7 5 9 6 5 4 4 7 8 11 9 10 10 29 30 29 30 31 31 29 28 27 27 26 25 24
7 9 10 9 9 10 11 12 11 12 11 10 11 8 8 8 5 6 6 7 4 3 3 6 3 9 9 7 8 11 31 32 29 28 30 29 28 28 27 27 26 25 24
5 8 9 9 10 11 11 12 8 9 11 11 13 11 8 8 7 6 5 6 4 2 5 5 6 6 10 7 5 9 18 30 29 27 28 27 27 26 24 24 25 24 23
6 9 8 10 11 12 13 13 9 10 11 12 11 12 10 8 8 7 6 4 4 4 7 6 4 7 9 5 7 5 14 23 30 27 27 27 25 24 23 22 21 21 21
6 8 8 9 11 12 13 12 11 11 12 10 10 14 12 9 9 7 6 6 5 2 3 2 2 1 6 6 5 6 7 14 23 27 26 25 25 24 23 22 20 19 18
6 9 9 9 11 12 13 12 13 14 14 14 14 14 15 15 10 9 7 6 5 5 2 1 2 3 5 7 2 5 10 12 11 28 26 24 24 22 22 21 19 19 18
6 8 9 9 10 12 12 12 14 15 15 14 15 16 16 12 14 12 9 10 8 7 1 3 5 7 8 3 4 5 13 13 15 21 26 26 23 22 21 20 20 19 18
7 7 10 11 11 12 12 12 13 13 15 14 14 15 16 16 16 12 12 11 9 8 8 5 5 5 6 5 5 9 15 15 13 18 23 24 23 22 22 21 20 20 19
6 7 10 11 11 12 13 11 13 13 14 14 15 15 16 16 17 15 13 13 11 10 10 9 5 5 6 4 5 4 12 12 11 12 12 16 21 20 21 20 19 18 19
6 7 10 11 12 13 12 15 13 13 15 15 16 16 16 23 26 22 12 15 15 11 10 9 10 6 7 5 6 4 8 12 8 3 8 6 7 8 8 14 14 18 17
6 7 10 11 13 11 23 24 18 13 14 15 17 16 15 21 20 22 24 23 22 14 16 11 10 9 9 4 5 4 3 10 6 7 3 5 8 7 6 8 11 14 16
6 7 9 11 12 14 24 23 22 11 12 14 16 16 15 14 19 15 18 21 24 28 19 12 11 13 4 7 7 9 8 6 5 4 3 5 5 6 6 7 14 16 15
6 7 10 11 10 12 23 24 20 12 12 14 15 18 17 17 21 17 15 16 17 17 17 13 13 12 12 10 8 4 6 9 7 10 7 3 0 4 5 5 14 15 17
5 8 8 10 11 12 24 23 16 11 12 14 14 18 19 19 28 27 17 17 17 17 16 22 21 24 31 32 23 8 10 4 5 6 9 3 4 3 2 4 3 11 15
7 6 9 9 14 11 22 24 17 9 12 11 13 15 28 24 29 29 18 16 18 15 15 17 18 23 25 23 29 19 11 10 4 4 5 4 4 2 5 4 9 9 5
Wind_Direction
0 348 349 354 340 335 329 325 325 321 317 310 306 303 301 297 294 291 280 295 292 295 306 308 298 260 222 209 159 163 160 160 156 156 156 154 153 155 159 147 146 142 140
9 3 353 350 341 336 326 319 319 319 312 307 302 298 295 293 294 286 284 287 280 276 278 285 295 276 227 208 161 164 161 161 159 157 157 156 155 156 161 148 148 145 146
8 4 359 344 338 327 323 319 314 315 311 308 304 299 300 294 295 287 283 276 271 270 268 264 270 270 279 238 165 165 162 162 159 158 158 156 158 157 161 151 149 149 147
19 5 352 343 332 328 323 322 318 323 315 315 309 304 303 298 292 288 273 252 255 258 263 254 254 269 258 271 177 166 162 161 159 159 159 157 160 160 163 158 150 151 149
8 3 335 333 333 328 323 326 330 327 322 318 311 312 307 295 288 280 269 251 249 251 252 250 246 257 251 240 171 165 162 161 160 160 160 159 161 159 163 163 155 154 150
358 347 340 333 333 331 332 334 333 326 324 313 320 312 310 293 289 267 256 246 245 234 243 243 234 248 251 216 182 167 163 162 162 162 161 160 162 162 163 163 160 157 155
359 349 345 339 337 339 338 338 330 319 328 330 317 320 316 307 284 333 291 280 249 235 237 234 219 237 205 229 193 166 163 165 163 163 162 160 162 162 164 165 164 159 156
2 349 342 337 340 339 330 332 328 328 321 333 333 323 333 329 337 316 319 298 299 296 239 220 209 219 199 180 189 213 166 166 164 163 162 161 161 163 163 163 167 162 159
343 351 343 339 341 337 338 334 329 331 330 336 346 327 333 336 318 308 318 297 298 288 261 209 210 222 186 184 191 221 168 165 163 162 162 161 162 163 165 164 169 165 162
338 348 343 343 349 343 338 334 332 337 338 337 341 343 320 305 319 324 317 302 305 288 253 200 206 221 177 173 207 202 162 160 161 163 162 162 162 163 166 165 170 169 164
336 341 346 342 351 342 338 342 335 343 336 331 332 331 327 316 296 288 292 316 317 264 258 192 193 196 169 165 183 227 161 158 159 163 163 161 163 163 166 169 169 171 166
337 342 344 339 349 343 342 341 341 335 339 333 332 330 329 317 321 311 287 312 289 277 272 165 187 143 149 162 197 230 161 153 157 163 163 160 162 162 164 167 170 171 173
348 340 336 340 347 341 342 344 341 342 340 335 332 338 327 315 303 295 285 321 289 298 353 47 112 139 129 122 120 227 159 156 155 161 161 161 160 161 164 166 170 173 174
321 327 335 340 350 345 345 347 344 345 339 338 335 342 327 318 318 304 302 320 299 326 44 7 34 84 105 88 103 148 161 156 154 159 158 159 157 160 162 164 168 171 174
343 342 338 348 353 351 353 352 349 349 347 345 340 341 332 327 322 318 325 328 322 359 40 7 40 11 98 132 114 89 166 161 154 155 158 158 155 159 159 160 164 168 172
343 341 347 342 355 354 352 354 355 357 355 351 345 343 338 336 333 340 335 336 349 1 51 360 33 341 97 105 98 146 158 156 163 156 155 158 158 159 159 159 161 162 166
349 357 354 341 353 353 353 354 3 7 358 355 351 349 345 345 346 344 350 359 11 11 4 2 343 12 72 92 152 184 170 165 169 157 155 156 157 158 158 159 160 162 164
2 2 354 349 353 351 356 3 8 9 359 356 354 351 352 353 358 359 357 4 6 9 318 23 16 27 59 39 323 216 167 162 167 169 157 157 160 158 158 160 162 162 165
19 6 2 358 350 348 359 11 13 9 3 360 359 355 355 358 3 2 7 11 11 9 18 49 51 14 48 22 337 135 149 149 153 159 158 161 162 164 163 163 166 167 166
27 15 6 1 355 354 12 14 11 9 7 5 4 2 4 7 7 7 14 16 14 20 23 39 44 43 39 359 352 102 126 137 134 161 171 174 169 168 167 165 166 171 171
31 25 10 9 8 15 18 19 13 10 9 9 11 8 7 14 10 14 19 23 25 29 33 35 40 35 32 11 5 316 101 99 66 121 156 155 162 173 175 171 175 173 178
26 29 19 13 18 18 22 23 21 13 11 11 16 10 9 13 8 12 17 27 34 29 38 36 35 42 28 345 319 343 61 123 124 28 139 130 159 165 161 182 180 179 179
32 23 21 15 16 21 23 23 17 15 18 15 16 14 12 15 13 15 20 28 32 34 35 37 40 36 9 358 348 32 45 63 70 17 10 137 155 160 165 172 166 176 184
32 30 28 18 12 18 22 23 15 15 22 26 22 24 20 19 21 22 26 31 32 32 25 33 39 40 39 30 27 44 64 91 94 53 10 95 314 149 148 166 177 180 184
38 36 23 22 17 6 22 24 19 17 20 26 26 27 27 26 26 26 29 32 33 27 22 32 39 43 46 45 41 50 40 65 67 37 12 42 11 25 86 40 196 195 197
53 37 33 24 18 10 15 25 29 18 21 23 24 28 31 31 32 33 34 27 35 17 15 21 28 34 38 41 43 42 28 45 42 44 8 72 360 314 84 25 31 32 53